Sauk Centre, MN

8:28 PM CST on December 08, 2019 (GMT -0600)
Sauk Centre

Weather History for KD39 - September, 2019

Change the Weather History Date:

Wednesday, September 25, 2019

  Actual Average (WUND) Record (WUND)
Temperature  
Mean Temperature 56 °F -  
Max Temperature 64 °F - - (-1)
Min Temperature 48 °F - - (-1)
Degree Days  
Heating Degree Days 9    
Growing Degree Days 6 (Base 50)    
Moisture  
Dew Point 45 °F    
Average Humidity 70    
Maximum Humidity 94    
Minimum Humidity 42    
Precipitation  
Precipitation 0.00 in - - ()
Sea Level Pressure  
Sea Level Pressure 29.75 in    
Wind  
Wind Speed 10 mph ()    
Max Wind Speed 24 mph    
Max Gust Speed 32 mph    
Visibility 10.0 miles    
Events      
Averages and records for this station are not official NWS values.
T = Trace of Precipitation, MM = Missing Value Source: Averaged Metar Reports

Daily Weather History Graph

Daily Weather History Graph

Search for Another Location

Airport or City:

Astronomy

Sep. 25, 2019 Rise Set
Actual Time 7:10 AM CDT 7:11 PM CDT
Civil Twilight 6:40 AM CDT 7:41 PM CDT
Nautical Twilight 6:05 AM CDT 8:16 PM CDT
Astronomical Twilight 5:30 AM CDT 8:51 PM CDT
Moon 2:48 AM CDT (9/25) 5:58 PM CDT (9/25)
Length of Visible Light 13h 00m
Length of Day
12h 01m
Waning Crescent, 14% of the Moon is Illuminated
Sep 25
Waning Crescent
Sep 28
New
Oct 5
First Quarter
Oct 13
Full
Oct 21
Last Quarter

Hourly Weather History & Observations

Time (CDT) Temp. Dew Point Humidity Pressure Visibility Wind Dir Wind Speed Gust Speed Precip Events Conditions
12:59 AM 55.4 °F 50.0 °F 82% 29.61 in 10.0 mi West 5.8 mph - N/A   Clear
1:59 AM 53.6 °F 50.0 °F 88% 29.62 in 10.0 mi WSW 5.8 mph - N/A   Clear
2:59 AM 53.6 °F 50.0 °F 88% 29.65 in 10.0 mi West 11.5 mph - N/A   Clear
3:59 AM 53.6 °F 50.0 °F 88% 29.66 in 10.0 mi West 9.2 mph - N/A   Clear
4:59 AM 51.8 °F 50.0 °F 94% 29.69 in 10.0 mi West 11.5 mph - N/A   Clear
5:59 AM 50.0 °F 48.2 °F 94% 29.71 in 10.0 mi West 9.2 mph - N/A   Clear
6:59 AM 50.0 °F 48.2 °F 94% 29.72 in 10.0 mi West 8.1 mph - N/A   Clear
7:59 AM 50.0 °F 48.2 °F 94% 29.74 in 10.0 mi West 8.1 mph - N/A   Clear
8:59 AM 53.6 °F 48.2 °F 82% 29.75 in 10.0 mi West 13.8 mph 19.6 mph N/A   Clear
9:59 AM 57.2 °F 48.2 °F 72% 29.77 in 10.0 mi West 12.7 mph 21.9 mph N/A   Clear
10:59 AM 59.0 °F 48.2 °F 67% 29.77 in 10.0 mi West 16.1 mph 20.7 mph N/A   Clear
11:59 AM 60.8 °F 44.6 °F 55% 29.77 in 10.0 mi West 18.4 mph 24.2 mph N/A   Clear
12:59 PM 62.6 °F 42.8 °F 48% 29.77 in 10.0 mi West 17.3 mph 24.2 mph N/A   Scattered Clouds
1:59 PM 60.8 °F 42.8 °F 52% 29.77 in 10.0 mi WNW 16.1 mph 25.3 mph N/A   Scattered Clouds
2:59 PM 62.6 °F 42.8 °F 48% 29.76 in 10.0 mi West 20.7 mph 25.3 mph N/A   Mostly Cloudy
3:59 PM 64.4 °F 41.0 °F 42% 29.77 in 10.0 mi West 24.2 mph 32.2 mph N/A   Scattered Clouds
4:59 PM 62.6 °F 39.2 °F 42% 29.78 in 10.0 mi WNW 16.1 mph 25.3 mph N/A   Clear
5:59 PM 60.8 °F 37.4 °F 42% 29.79 in 10.0 mi WNW 15.0 mph 25.3 mph N/A   Scattered Clouds
6:59 PM 57.2 °F 41.0 °F 55% 29.81 in 10.0 mi West 6.9 mph - N/A   Scattered Clouds
7:59 PM 51.8 °F 41.0 °F 67% 29.83 in 10.0 mi West 8.1 mph - N/A   Scattered Clouds
9:59 PM 48.2 °F 41.0 °F 76% 29.86 in 10.0 mi West 9.2 mph - N/A   Clear
10:59 PM 50.0 °F 41.0 °F 71% 29.87 in 10.0 mi West 9.2 mph - N/A   Clear
11:59 PM 48.2 °F 41.0 °F 76% 29.88 in 10.0 mi West 8.1 mph - N/A   Clear